This demonstration page uses our WeatherBlox Daily Observations layout. Learn more.

Left ArrowRight Arrow

39.29038, -76.61219

Hourly Observations for January 31, 2020

Temp ( °F °C ) Dew Point ( °F °C ) Humidity (%) Winds ( mph kmh ) Pressure ( in mb ) Visibility ( mi km ) Precip ( " mm )
12:54 am 00:54 undefined 36 2.2 23 -5 59 59 undefined N/A 30.32 1027 N/A 0.00 0.00
1:54 am 01:54 undefined 36 2.2 23 -5 59 59 undefined N/A 30.32 1027 N/A 0.00 0.00
2:54 am 02:54 undefined 36 2.2 24 -4.4 62 62 undefined N/A 30.31 1026 N/A 0.00 0.00
3:54 am 03:54 undefined 36 2.2 24 -4.4 62 62 undefined N/A 30.31 1026 N/A 0.00 0.00
4:54 am 04:54 undefined 35 1.7 25 -3.9 67 67 undefined N/A 30.32 1027 N/A 0.00 0.00
5:54 am 05:54 undefined 35 1.7 26 -3.3 70 70 undefined N/A 30.29 1026 N/A 0.00 0.00
6:54 am 06:54 undefined 35 1.7 26 -3.3 70 70 undefined N/A 30.32 1027 N/A 0.00 0.00
7:54 am 07:54 undefined 36 2.2 27 -2.8 70 70 undefined N/A 30.32 1027 N/A 0.00 0.00
8:54 am 08:54 undefined 38 3.3 27 -2.8 65 65 undefined N/A 30.36 1028 N/A 0.00 0.00
9:54 am 09:54 undefined 39 3.9 27 -2.8 62 62 undefined N/A 30.35 1028 N/A 0.00 0.00
10:54 am 10:54 undefined 41 5 28 -2.2 60 60 undefined N/A 30.34 1028 N/A 0.00 0.00
11:54 am 11:54 undefined 42 5.6 31 -0.6 65 65 undefined N/A 30.30 1026 N/A 0.00 0.00
12:54 pm 12:54 undefined 43 6.1 33 0.6 68 68 undefined N/A 30.27 1025 N/A 0.00 0.00
1:54 pm 13:54 undefined 44 6.7 33 0.6 65 65 undefined N/A 30.24 1024 N/A 0.00 0.00
2:54 pm 14:54 undefined 44 6.7 31 -0.6 60 60 undefined N/A 30.21 1023 N/A 0.00 0.00
3:54 pm 15:54 undefined 44 6.7 33 0.6 65 65 undefined N/A 30.21 1023 N/A 0.00 0.00
4:54 pm 16:54 undefined 44 6.7 31 -0.6 60 60 undefined N/A 30.24 1024 N/A 0.00 0.00
5:54 pm 17:54 undefined 42 5.6 34 1.1 73 73 undefined N/A 30.21 1023 N/A 0.02 0.51
6:54 pm 18:54 undefined 43 6.1 34 1.1 71 71 undefined N/A 30.23 1024 N/A 0.00 0.00
7:54 pm 19:54 undefined 42 5.6 35 1.7 76 76 undefined N/A 30.20 1023 N/A 0.00 0.00
8:54 pm 20:54 undefined 42 5.6 35 1.7 76 76 undefined N/A 30.20 1023 N/A 0.00 0.00
9:54 pm 21:54 undefined 41 5 35 1.7 79 79 undefined N/A 30.16 1022 N/A 0.00 0.00
10:54 pm 22:54 undefined 40 4.4 35 1.7 83 83 undefined N/A 30.14 1021 N/A 0.00 0.00
11:54 pm 23:54 undefined 40 4.4 35 1.7 83 83 undefined N/A 30.13 1020 N/A 0.00 0.00

Powered by AerisWeather